Starlink 32386

operational
NORAD ID: 61213 Int'l Des: 2024-171 Owner: SPXS Country: US Constellation: starlink
LEOCIRCULAR

关于 Starlink 32386

正在加载描述...

实时位置

正在加载3D地球...

即将过境

高度历史

Altitude vs Time

uPlot chart will show altitude changes over time

两行轨道根数

1 61213U 24171P 25351.00293501 .00000277 00000-0 21500-4 0 9992
2 61213 53.1628 346.1680 0001440 73.5746 286.5413 15.30195291 69717
Epoch: Dec 17, 2025 • Age: 10 hours

当前状态

高度 479.8 km
速度 7.63 km/s
星下点 48.82°N, 169.72°E
发射日期 Sep 20, 2024
运行时间 1.2 years
类型 internet

技术详情

分类 Payload
质量 730.00 kg
干质量 700.00 kg
总质量 730.00 kg
长度 0.30 m
直径 4.10 m
跨度 29.00 m
形状 Box + pan
制造商 SPXS
平台类型 Starlink V2M
阶段状态 In Orbit
所有者/国家 SPXS/US

大型星座

Loading constellations...